Date String (YYYY-MM-DD hh:mm:ss) UTC,Instrument flags,Ambient pressure (hPa),Sample flow (lpm),Bypass flow (lpm),Sample temperature (°C),Ambient temperature (°C),ASC tube jacket temperature (°C),LED temperature (°C),Box temperature (°C),Sample RH (%),Span deviation,Mass concentration (μg/m³),Mass concentration (μg/m³),Mass concentration (μg/m³)
DateTimeUTC,F1_M11,P_M11,Q1_M11,Q2_M11,T1_M11,T2_M11,T3_M11,T4_M11,T5_M11,U1_M11,ZSPAN_M11,X2_M11,X0_M11,X1_M11
2022-09-14 21:00:00,,0821.7,4.99,0.00,30.0,26.6,00.0,38.6,31.8,20.2,0001.4,0005.53,0011.84,0004.85
2022-09-14 21:01:00,,0821.8,5.00,0.00,29.9,26.7,00.0,38.5,31.7,20.5,0001.0,0005.55,0011.75,0004.84
2022-09-14 21:02:00,,0821.8,5.00,0.00,29.9,27.0,00.0,38.5,31.6,20.5,0001.7,0005.52,0011.63,0004.81
2022-09-14 21:03:00,,0821.8,5.00,0.00,29.8,27.3,00.0,38.5,31.5,20.4,0002.1,0005.49,0011.53,0004.77
2022-09-14 21:04:00,,0821.8,5.00,0.00,29.8,27.7,00.0,38.5,31.6,20.5,0002.1,0005.44,0011.48,0004.72
2022-09-14 21:05:00,,0821.8,5.00,0.00,29.8,28.0,00.0,38.5,31.7,20.2,0002.2,0005.38,0011.84,0004.66
2022-09-14 21:06:00,,0821.8,5.00,0.00,29.8,28.3,00.0,38.5,31.7,20.5,0002.4,0005.34,0012.00,0004.60
2022-09-14 21:07:00,,0821.8,4.98,0.00,29.9,28.5,00.0,38.5,31.7,20.3,0002.4,0005.28,0012.06,0004.53
2022-09-14 21:08:00,,0821.8,5.01,0.00,29.9,28.6,00.0,38.5,31.8,20.3,0002.7,0005.25,0012.06,0004.47
2022-09-14 21:09:00,,0821.8,5.00,0.00,29.9,28.7,00.0,38.5,31.8,20.2,0002.2,0005.14,0011.21,0004.40
2022-09-14 21:10:00,,0821.8,5.00,0.00,29.9,28.9,00.0,38.6,31.9,19.7,0001.2,0005.09,0011.36,0004.34
2022-09-14 21:11:00,,0821.8,5.00,0.00,30.0,29.0,00.0,38.6,31.9,20.1,0000.5,0005.05,0010.94,0004.32
2022-09-14 21:12:00,,0821.8,5.01,0.00,30.0,29.1,00.0,38.6,32.0,20.0,0000.0,0005.00,0010.77,0004.31
2022-09-14 21:13:00,,0821.8,5.00,0.00,30.1,29.1,00.0,38.6,32.0,19.7,0000.0,0005.06,0011.54,0004.32
2022-09-14 21:14:00,,0821.8,5.00,0.00,30.1,28.2,00.0,38.7,32.0,19.4,0000.0,0005.08,0011.96,0004.33
2022-09-14 21:15:00,,0821.8,5.00,0.00,30.1,26.9,00.0,38.6,31.9,19.4,0000.0,0005.11,0012.39,0004.33
2022-09-14 21:16:00,,0821.8,5.00,0.00,30.0,26.6,00.0,38.6,31.8,19.6,0000.0,0005.15,0012.14,0004.34
2022-09-14 21:17:00,,0821.8,5.00,0.00,29.9,26.9,00.0,38.6,31.7,19.8,0000.0,0005.14,0012.19,0004.34
2022-09-14 21:18:00,,0821.8,5.00,0.00,29.9,27.2,00.0,38.5,31.6,19.8,0000.0,0005.13,0012.12,0004.34
2022-09-14 21:19:00,,0821.8,4.99,0.00,29.9,27.6,00.0,38.5,31.7,19.7,0000.0,0005.11,0012.31,0004.35
2022-09-14 21:20:00,,0821.8,5.01,0.00,29.9,27.9,00.0,38.5,31.7,19.7,0000.0,0005.17,0012.23,0004.37
2022-09-14 21:21:00,,0821.8,4.99,0.00,29.9,28.1,00.0,38.5,31.7,19.7,0000.0,0005.19,0012.17,0004.37
2022-09-14 21:22:00,,0821.7,5.00,0.00,29.9,28.4,00.0,38.6,31.8,19.8,0000.0,0005.18,0012.21,0004.36
2022-09-14 21:23:00,,0821.8,5.00,0.00,29.9,28.6,00.0,38.6,31.8,19.8,0000.0,0005.17,0012.23,0004.35
2022-09-14 21:24:00,,0821.8,5.01,0.00,29.9,28.8,00.0,38.6,31.9,20.0,0000.0,0005.10,0011.88,0004.33
2022-09-14 21:25:00,,0821.9,4.99,0.00,30.0,28.9,00.0,38.6,31.9,19.8,0000.0,0005.08,0011.62,0004.32
2022-09-14 21:26:00,,0821.9,5.01,0.00,30.0,28.9,00.0,38.6,32.0,19.8,0000.0,0005.05,0011.69,0004.32
2022-09-14 21:27:00,,0821.8,4.99,0.00,30.0,27.7,00.0,38.6,31.9,19.8,0000.0,0005.02,0011.21,0004.33
2022-09-14 21:28:00,,0822.0,5.00,0.00,30.0,26.6,00.0,38.6,31.8,19.7,0000.0,0005.03,0011.18,0004.34
2022-09-14 21:29:00,,0821.9,4.99,0.00,29.9,26.6,00.0,38.5,31.7,20.4,0000.0,0005.05,0011.71,0004.35
2022-09-14 21:30:00,,0822.0,5.01,0.00,29.8,26.8,00.0,38.5,31.5,20.7,0000.0,0005.04,0011.47,0004.35
2022-09-14 21:31:00,,0822.0,5.00,0.00,29.8,27.2,00.0,38.5,31.5,20.0,0000.0,0005.00,0011.70,0004.35
2022-09-14 21:32:00,,0822.0,4.98,0.00,29.8,27.5,00.0,38.5,31.5,19.9,0000.0,0005.03,0012.55,0004.36
2022-09-14 21:33:00,,0822.1,5.01,0.00,29.8,27.9,00.0,38.5,31.6,19.9,0000.0,0005.04,0012.81,0004.36
2022-09-14 21:34:00,,0821.9,4.99,0.00,29.8,28.1,00.0,38.5,31.6,20.0,0000.0,0005.04,0013.26,0004.35
2022-09-14 21:35:00,,0822.0,5.01,0.00,29.8,28.4,00.0,38.5,31.7,19.9,0000.0,0005.05,0014.10,0004.35
2022-09-14 21:36:00,,0821.9,5.00,0.00,29.8,28.5,00.0,38.5,31.8,20.0,0000.0,0005.03,0014.12,0004.36
2022-09-14 21:37:00,,0821.9,4.99,0.00,29.8,28.7,00.0,38.5,31.8,20.0,0000.0,0005.02,0013.86,0004.36
2022-09-14 21:38:00,,0821.9,5.01,0.00,29.9,28.8,00.0,38.5,31.8,19.7,0000.2,0005.01,0014.06,0004.35
2022-09-14 21:39:00,,0822.0,5.00,0.00,29.9,28.9,00.0,38.6,31.9,19.8,0000.8,0005.01,0013.98,0004.35
2022-09-14 21:40:00,,0822.0,5.00,0.00,30.0,29.0,00.0,38.6,31.9,19.4,0000.2,0005.00,0013.27,0004.35
2022-09-14 21:41:00,,0822.1,5.00,0.00,30.0,28.9,00.0,38.6,32.0,19.9,0000.0,0005.01,0013.43,0004.35
2022-09-14 21:42:00,,0822.0,5.01,0.00,30.0,27.8,00.0,38.6,31.9,19.6,0000.0,0005.03,0013.46,0004.35
2022-09-14 21:43:00,,0822.0,5.00,0.00,30.0,27.2,00.0,38.6,31.9,19.3,0000.2,0005.02,0012.95,0004.36
2022-09-14 21:44:00,,0822.1,5.00,0.00,30.0,27.3,00.0,38.6,31.8,19.3,0001.4,0005.02,0013.46,0004.37
2022-09-14 21:45:00,,0822.1,4.99,0.00,29.9,27.6,00.0,38.6,31.7,19.7,0001.2,0005.07,0013.42,0004.39
2022-09-14 21:46:00,,0822.1,5.00,0.00,29.9,27.9,00.0,38.6,31.7,20.1,0001.2,0005.08,0012.13,0004.40
2022-09-14 21:47:00,,0822.1,5.01,0.00,29.9,28.1,00.0,38.6,31.8,20.3,0001.5,0005.08,0012.21,0004.39
2022-09-14 21:48:00,,0822.1,4.99,0.00,29.9,28.4,00.0,38.6,31.8,20.6,0002.1,0005.06,0011.90,0004.39
2022-09-14 21:49:00,,0822.1,5.01,0.00,29.9,28.6,00.0,38.6,31.8,20.6,0002.8,0005.04,0011.66,0004.38
2022-09-14 21:50:00,,0822.1,5.00,0.00,30.0,28.7,00.0,38.6,31.9,20.7,0002.5,0004.98,0011.70,0004.36
2022-09-14 21:51:00,,0822.1,5.00,0.00,30.0,28.9,00.0,38.6,32.0,20.6,0002.5,0004.93,0011.83,0004.34
2022-09-14 21:52:00,,0822.2,5.00,0.00,30.0,28.6,00.0,38.6,32.0,20.5,0002.3,0004.90,0011.56,0004.32
2022-09-14 21:53:00,,0822.2,5.01,0.00,30.0,27.2,00.0,38.6,31.9,20.5,0000.4,0004.85,0011.81,0004.30
2022-09-14 21:54:00,,0822.2,5.00,0.00,30.0,26.4,00.0,38.6,31.8,20.8,0001.2,0004.84,0011.41,0004.27
2022-09-14 21:55:00,,0822.3,5.01,0.00,29.9,26.5,00.0,38.5,31.7,20.6,0000.0,0004.85,0010.66,0004.25
2022-09-14 21:56:00,,0822.4,5.00,0.00,29.8,26.9,00.0,38.5,31.5,20.8,0000.0,0004.84,0011.32,0004.23
2022-09-14 21:57:00,,0822.4,4.99,0.00,29.8,27.3,00.0,38.5,31.5,21.3,0000.0,0004.84,0011.88,0004.22
2022-09-14 21:58:00,,0822.4,5.00,0.00,29.8,27.6,00.0,38.5,31.5,22.5,0000.0,0004.76,0011.51,0004.15
2022-09-14 21:59:00,,0822.4,4.99,0.00,29.8,27.9,00.0,38.5,31.6,23.3,0000.0,0004.64,0011.70,0004.04
